Meteo pe oră la Almussafes

Astăzi, 25 Ianuarie, Luni

Timp Temperatura Precipitaţii Vânt Presiune Umiditate
00:00 +13°C° 0 mm 6 m/s 757 mmHg 63%
01:00 +11°C° 0 mm 6 m/s 757 mmHg 65%
02:00 +11°C° 0 mm 6 m/s 757 mmHg 67%
03:00 +11°C° 0 mm 6 m/s 756 mmHg 69%
04:00 +12°C° 0 mm 5 m/s 756 mmHg 70%
05:00 +12°C° 0 mm 5 m/s 756 mmHg 71%
06:00 +13°C° 0 mm 5 m/s 755 mmHg 73%
07:00 +13°C° 0 mm 6 m/s 755 mmHg 71%
08:00 +14°C° 0 mm 6 m/s 755 mmHg 69%
09:00 +15°C° 0 mm 7 m/s 755 mmHg 68%
10:00 +16°C° 0 mm 8 m/s 755 mmHg 65%
11:00 +17°C° 0 mm 9 m/s 754 mmHg 62%
12:00 +18°C° 0 mm 10 m/s 754 mmHg 60%
13:00 +18°C° 0 mm 10 m/s 754 mmHg 61%
14:00 +18°C° 0 mm 9 m/s 753 mmHg 62%
15:00 +18°C° 0 mm 9 m/s 753 mmHg 63%
16:00 +17°C° 0 mm 9 m/s 753 mmHg 64%
17:00 +17°C° 0 mm 8 m/s 753 mmHg 65%
18:00 +16°C° 0 mm 8 m/s 754 mmHg 66%
19:00 +16°C° 0 mm 7 m/s 755 mmHg 68%
20:00 +15°C° 0 mm 6 m/s 756 mmHg 71%
21:00 +14°C° 0 mm 4 m/s 756 mmHg 74%
22:00 +14°C° 0 mm 4 m/s 757 mmHg 75%
23:00 +13°C° 0 mm 3 m/s 758 mmHg 75%

Mâine, 26 Ianuarie, Marţi

Timp Temperatura Precipitaţii Vânt Presiune Umiditate
00:00 +12°C° 0 mm 3 m/s 759 mmHg 76%
01:00 +11°C° 0 mm 3 m/s 759 mmHg 76%
02:00 +11°C° 0 mm 3 m/s 760 mmHg 77%
03:00 +10°C° 0 mm 2 m/s 760 mmHg 78%
04:00 +10°C° 0 mm 2 m/s 761 mmHg 78%
05:00 +10°C° 0 mm 2 m/s 761 mmHg 78%
06:00 +9°C° 0 mm 2 m/s 762 mmHg 78%
07:00 +10°C° 0 mm 2 m/s 762 mmHg 75%
08:00 +13°C° 0 mm 2 m/s 763 mmHg 73%
09:00 +14°C° 0 mm 2 m/s 763 mmHg 70%
10:00 +16°C° 0 mm 2 m/s 763 mmHg 65%
11:00 +18°C° 0 mm 3 m/s 763 mmHg 61%
12:00 +19°C° 0 mm 3 m/s 763 mmHg 56%
13:00 +20°C° 0 mm 4 m/s 763 mmHg 57%
14:00 +20°C° 0 mm 5 m/s 762 mmHg 58%
15:00 +20°C° 0 mm 5 m/s 762 mmHg 59%
16:00 +19°C° 0 mm 5 m/s 762 mmHg 63%
17:00 +17°C° 0 mm 6 m/s 762 mmHg 68%
18:00 +16°C° 0 mm 6 m/s 762 mmHg 72%
19:00 +15°C° 0 mm 5 m/s 762 mmHg 75%
20:00 +15°C° 0 mm 5 m/s 763 mmHg 77%
21:00 +15°C° 0 mm 4 m/s 763 mmHg 80%
22:00 +14°C° 0 mm 4 m/s 763 mmHg 81%
23:00 +14°C° 0 mm 4 m/s 763 mmHg 82%

Poimâine, 27 Ianuarie, Miercuri

Timp Temperatura Precipitaţii Vânt Presiune Umiditate
00:00 +14°C° 0 mm 4 m/s 763 mmHg 83%
01:00 +14°C° 0 mm 4 m/s 763 mmHg 83%
02:00 +14°C° 0 mm 4 m/s 763 mmHg 82%
03:00 +14°C° 0 mm 4 m/s 763 mmHg 82%
04:00 +14°C° 0 mm 4 m/s 763 mmHg 82%
05:00 +14°C° 0 mm 4 m/s 763 mmHg 82%
06:00 +13°C° 0 mm 3 m/s 763 mmHg 82%
07:00 +14°C° 0 mm 3 m/s 763 mmHg 79%
08:00 +16°C° 0 mm 3 m/s 764 mmHg 75%
09:00 +17°C° 0 mm 3 m/s 764 mmHg 72%
10:00 +19°C° 0 mm 4 m/s 764 mmHg 65%
11:00 +21°C° 0 mm 4 m/s 764 mmHg 58%
12:00 +22°C° 0 mm 4 m/s 764 mmHg 52%
13:00 +22°C° 0 mm 5 m/s 764 mmHg 52%
14:00 +23°C° 0 mm 5 m/s 763 mmHg 52%
15:00 +23°C° 0 mm 5 m/s 763 mmHg 52%
16:00 +21°C° 0 mm 5 m/s 763 mmHg 56%
17:00 +19°C° 0 mm 4 m/s 763 mmHg 61%
18:00 +18°C° 0 mm 3 m/s 764 mmHg 65%
19:00 +17°C° 0 mm 3 m/s 764 mmHg 67%
20:00 +17°C° 0 mm 3 m/s 764 mmHg 70%
21:00 +16°C° 0 mm 3 m/s 764 mmHg 72%
22:00 +16°C° 0 mm 3 m/s 765 mmHg 73%
23:00 +14°C° 0 mm 3 m/s 765 mmHg 75%

28 Ianuarie, Joi

Timp Temperatura Precipitaţii Vânt Presiune Umiditate
00:00 +14°C° 0 mm 3 m/s 765 mmHg 76%
01:00 +13°C° 0 mm 3 m/s 765 mmHg 77%
02:00 +13°C° 0 mm 3 m/s 764 mmHg 78%
03:00 +13°C° 0 mm 3 m/s 764 mmHg 80%
04:00 +13°C° 0 mm 3 m/s 764 mmHg 80%
05:00 +12°C° 0 mm 3 m/s 764 mmHg 81%
06:00 +12°C° 0 mm 3 m/s 764 mmHg 81%
07:00 +13°C° 0 mm 3 m/s 764 mmHg 78%
08:00 +16°C° 0 mm 3 m/s 765 mmHg 75%
09:00 +17°C° 0 mm 3 m/s 765 mmHg 71%
10:00 +19°C° 0 mm 3 m/s 765 mmHg 64%
11:00 +21°C° 0 mm 3 m/s 765 mmHg 56%
12:00 +24°C° 0 mm 3 m/s 765 mmHg 49%
13:00 +25°C° 0 mm 3 m/s 764 mmHg 48%
14:00 +25°C° 0 mm 3 m/s 763 mmHg 46%
15:00 +26°C° 0 mm 3 m/s 763 mmHg 45%
16:00 +23°C° 0 mm 4 m/s 763 mmHg 51%
17:00 +21°C° 0 mm 4 m/s 763 mmHg 57%
18:00 +19°C° 0 mm 4 m/s 763 mmHg 63%
19:00 +18°C° 0 mm 4 m/s 763 mmHg 65%
20:00 +18°C° 0 mm 4 m/s 763 mmHg 66%
21:00 +17°C° 0 mm 4 m/s 763 mmHg 68%
22:00 +17°C° 0 mm 3 m/s 763 mmHg 68%
23:00 +17°C° 0 mm 3 m/s 764 mmHg 68%

29 Ianuarie, Vineri

Timp Temperatura Precipitaţii Vânt Presiune Umiditate
00:00 +17°C° 0 mm 3 m/s 764 mmHg 69%
01:00 +16°C° 0 mm 3 m/s 763 mmHg 70%
02:00 +16°C° 0 mm 3 m/s 763 mmHg 70%
03:00 +16°C° 0 mm 3 m/s 762 mmHg 71%
04:00 +14°C° 0 mm 3 m/s 762 mmHg 71%
05:00 +14°C° 0 mm 3 m/s 762 mmHg 71%
06:00 +14°C° 0 mm 3 m/s 761 mmHg 72%
07:00 +16°C° 0 mm 3 m/s 761 mmHg 69%
08:00 +17°C° 0 mm 3 m/s 761 mmHg 67%
09:00 +19°C° 0 mm 3 m/s 762 mmHg 64%
10:00 +21°C° 0 mm 3 m/s 761 mmHg 56%
11:00 +24°C° 0 mm 3 m/s 761 mmHg 48%
12:00 +26°C° 0 mm 4 m/s 760 mmHg 39%
13:00 +27°C° 0 mm 4 m/s 760 mmHg 38%
14:00 +27°C° 0 mm 4 m/s 759 mmHg 37%
15:00 +27°C° 0 mm 4 m/s 758 mmHg 36%
16:00 +25°C° 0 mm 4 m/s 758 mmHg 39%
17:00 +22°C° 0 mm 4 m/s 758 mmHg 42%
18:00 +21°C° 0 mm 4 m/s 758 mmHg 45%
19:00 +20°C° 0 mm 4 m/s 758 mmHg 51%
20:00 +19°C° 0 mm 5 m/s 758 mmHg 57%
21:00 +17°C° 0 mm 5 m/s 758 mmHg 62%
22:00 +17°C° 0 mm 5 m/s 758 mmHg 65%
23:00 +17°C° 0 mm 6 m/s 757 mmHg 69%

30 Ianuarie, Sâmbătă

Timp Temperatura Precipitaţii Vânt Presiune Umiditate
00:00 +17°C° 0 mm 6 m/s 757 mmHg 72%
01:00 +17°C° 0 mm 6 m/s 756 mmHg 71%
02:00 +17°C° 0 mm 5 m/s 756 mmHg 70%
03:00 +17°C° 0 mm 5 m/s 755 mmHg 69%
04:00 +17°C° 0 mm 5 m/s 754 mmHg 68%
05:00 +16°C° 0 mm 5 m/s 754 mmHg 66%
06:00 +16°C° 0 mm 6 m/s 753 mmHg 65%
07:00 +16°C° 0.2 mm 5 m/s 753 mmHg 67%
08:00 +16°C° 0.2 mm 5 m/s 753 mmHg 69%
09:00 +17°C° 0.2 mm 4 m/s 753 mmHg 70%
10:00 +16°C° 0.1 mm 5 m/s 752 mmHg 69%
11:00 +16°C° 0.1 mm 6 m/s 752 mmHg 67%
12:00 +17°C° 0.1 mm 6 m/s 751 mmHg 65%
13:00 +17°C° 0 mm 7 m/s 751 mmHg 61%
14:00 +18°C° 0 mm 7 m/s 751 mmHg 57%
15:00 +20°C° 0 mm 7 m/s 751 mmHg 53%
16:00 +18°C° 0.1 mm 7 m/s 752 mmHg 56%
17:00 +16°C° 0.1 mm 7 m/s 753 mmHg 59%
18:00 +15°C° 0.1 mm 7 m/s 754 mmHg 62%
19:00 +14°C° 0 mm 6 m/s 756 mmHg 60%
20:00 +13°C° 0 mm 5 m/s 757 mmHg 59%
21:00 +12°C° 0 mm 4 m/s 758 mmHg 57%
22:00 +11°C° 0 mm 3 m/s 759 mmHg 61%
23:00 +10°C° 0 mm 3 m/s 760 mmHg 65%
Arată mai mult

Formular de consimțământ

Meteoprog și furnizorii noștri de servicii pot stoca și accesa date personale, precum cookies, identificatori de dispozitiv sau alte tehnologii similare pe dispozitivul dumneavoastră și procesa astfel de date pentru a personaliza conținutul și reclamele, dar și pentru a oferi caracteristici de social media și pentru a analiza traficul.

  • Stocarea și/sau accesarea informațiilor pe dispozitivul dumneavoastră

    Cookies, identificatori de dispozitiv sau alte informații pot fi stocate sau accesate pe dispozitiv în scopurile indicate mai sus.

  • Reclame și conținut personalizat, evaluarea reclamelor și a conținutului, informații despre audiențe și dezvoltarea produselor

    Reclamele și conținutul pot fi personalizate pe baza unui profil. Pot fi adăugate date suplimentare pentru a personaliza mai bine reclamele și conținutul. Performanța reclamelor și conținutului poate fi măsurată. Pot fi obținute informații despre utilizatorii care au văzut reclamele și conținutul. Aceste date pot fi utilizate pentru a dezvolta sau îmbunătăți experiența utilizatorilor, sistemele și software-ul.

Dând clic pe ‘Sunt de acord’, permiteți utilizarea cookie-urilor menționate, a identificatorilor de dispozitiv, balizelor web sau altor tehnologii similare. Setările pot fi modificate din browser-ul dispozitivului dumneavoastră.

În anumite scopuri, interesele legitime pot prima asupra consimțământului. Puteți citi mai multe informații în acest sens în Politica privind Confidențialitatea Datelor și Cookie.